Location: Nitra
(0.0000°N, 18.0833°E)
Time: 19:01:35
(UTC+01:00)

CZ-2D R/B - Pass Details

Date: 24 January 2021
Orbit: 521 x 538 km, 97.4° (Epoch: 02 March)

Event Time Altitude Azimuth Distance (km) Brightness Sun altitude
Rises 18:29:30 0° 170° (S) 2,688 7.0 -7.0°
Reaches altitude 10° 18:31:37 10° 171° (S) 1,794 6.1 -7.5°
Maximum altitude 18:35:29 85° 257° (WSW) 542 3.3 -8.4°
Drops below altitude 10° 18:39:20 10° 347° (NNW) 1,779 5.9 -9.3°
Sets 18:41:26 0° 348° (NNW) 2,664 6.7 -9.8°
